ZSPIM FAVG-FALA

Flight info

Callsign ZSPIM
Flight time 5h 8m
Altitude 10000
Route ESTEX/N0146F110 DCT FAGY/N0145F100 DCT LYV DCT WRV DCT HGV
Aircraft C182/L-SDGRY/S

Departure

Time 2026-05-05 08:06
Airport Virginia Airport (FAVG)

Arrival

Time 2026-05-05 13:15
Airport Lanseria International Airport (FALA)
Time Latitude Longitude Altitude Speed Heading
2026-05-05 07:59 -29.77022 31.05790 32 ft 0 kts 297°
2026-05-05 08:03 -29.77023 31.05791 29 ft 3 kts 101°
2026-05-05 08:03 -29.77037 31.05802 32 ft 6 kts 191°
2026-05-05 08:04 -29.77099 31.05765 28 ft 15 kts 208°
2026-05-05 08:04 -29.77211 31.05697 28 ft 20 kts 209°
2026-05-05 08:04 -29.77319 31.05636 27 ft 18 kts 204°
2026-05-05 08:04 -29.77405 31.05587 27 ft 8 kts 152°
2026-05-05 08:05 -29.77429 31.05636 27 ft 3 kts 84°
2026-05-05 08:05 -29.77419 31.05642 27 ft 0 kts 28°
2026-05-05 08:05 -29.77419 31.05643 27 ft 3 kts 28°
2026-05-05 08:06 -29.77149 31.05814 27 ft 79 kts 28°
2026-05-05 08:06 -29.76583 31.06156 266 ft 95 kts 32°
2026-05-05 08:06 -29.76047 31.06536 698 ft 92 kts 35°
2026-05-05 08:06 -29.75488 31.06968 1005 ft 96 kts 35°
2026-05-05 08:07 -29.74869 31.07266 1346 ft 100 kts
2026-05-05 08:07 -29.74272 31.06794 1369 ft 123 kts 280°
2026-05-05 08:07 -29.74610 31.06035 1515 ft 119 kts 220°
2026-05-05 08:07 -29.75150 31.05497 1609 ft 116 kts 217°
2026-05-05 08:08 -29.75453 31.05236 1820 ft 105 kts 211°
2026-05-05 08:08 -29.76059 31.04828 2009 ft 103 kts 214°
2026-05-05 08:09 -29.76088 31.03973 1908 ft 127 kts 302°
2026-05-05 08:09 -29.75520 31.03188 1881 ft 128 kts 308°
2026-05-05 08:09 -29.74879 31.02514 1888 ft 126 kts 323°
2026-05-05 08:09 -29.74156 31.01970 1905 ft 123 kts 327°
2026-05-05 08:10 -29.73426 31.01449 1889 ft 123 kts 329°
2026-05-05 08:10 -29.72705 31.00926 1868 ft 122 kts 323°
2026-05-05 08:10 -29.72152 31.00175 1830 ft 123 kts 296°
2026-05-05 08:10 -29.71858 30.99278 1847 ft 119 kts 285°
2026-05-05 08:11 -29.71636 30.98342 1787 ft 122 kts 282°
2026-05-05 08:11 -29.71450 30.97407 1821 ft 118 kts 278°
2026-05-05 08:11 -29.71353 30.96464 1776 ft 120 kts 270°
2026-05-05 08:11 -29.71216 30.95528 1735 ft 121 kts 289°
2026-05-05 08:12 -29.70780 30.94707 1691 ft 122 kts 309°
2026-05-05 08:12 -29.70221 30.93975 1647 ft 120 kts 307°
2026-05-05 08:12 -29.69752 30.93175 1604 ft 121 kts 300°
2026-05-05 08:12 -29.69295 30.92369 1550 ft 117 kts 301°
2026-05-05 08:13 -29.68822 30.91561 1419 ft 127 kts 302°
2026-05-05 08:13 -29.68348 30.90786 1623 ft 108 kts 303°
2026-05-05 08:13 -29.67936 30.90097 1865 ft 105 kts 302°
2026-05-05 08:13 -29.67523 30.89391 2002 ft 107 kts 303°
2026-05-05 08:14 -29.67105 30.88680 2148 ft 108 kts 302°
2026-05-05 08:14 -29.66686 30.87961 2374 ft 108 kts 303°
2026-05-05 08:14 -29.66275 30.87244 2605 ft 109 kts 304°
2026-05-05 08:14 -29.65853 30.86519 2832 ft 108 kts 304°
2026-05-05 08:15 -29.65438 30.85798 3042 ft 108 kts 305°
2026-05-05 08:15 -29.65022 30.85079 3271 ft 108 kts 306°
2026-05-05 08:15 -29.64616 30.84374 3488 ft 105 kts 307°
2026-05-05 08:15 -29.64217 30.83665 3650 ft 104 kts 305°
2026-05-05 08:16 -29.63814 30.82989 3880 ft 101 kts 306°
2026-05-05 08:16 -29.63430 30.82325 4059 ft 101 kts 306°
2026-05-05 08:16 -29.63044 30.81657 4247 ft 100 kts 306°
2026-05-05 08:16 -29.62643 30.80962 4296 ft 109 kts 306°
2026-05-05 08:17 -29.62208 30.80210 4301 ft 115 kts 306°
2026-05-05 08:17 -29.61757 30.79433 4299 ft 120 kts 306°
2026-05-05 08:17 -29.61289 30.78626 4298 ft 120 kts 306°
2026-05-05 08:17 -29.60825 30.77822 4297 ft 120 kts 306°
2026-05-05 08:18 -29.60367 30.77032 4295 ft 121 kts 306°
2026-05-05 08:18 -29.59902 30.76227 4298 ft 120 kts 306°
2026-05-05 08:18 -29.59438 30.75424 4294 ft 120 kts 306°
2026-05-05 08:18 -29.58977 30.74628 4294 ft 119 kts 306°
2026-05-05 08:19 -29.58521 30.73841 4300 ft 120 kts 306°
2026-05-05 08:19 -29.58055 30.73038 4298 ft 121 kts 306°
2026-05-05 08:19 -29.57596 30.72242 4301 ft 121 kts 306°
2026-05-05 08:19 -29.57127 30.71434 4305 ft 121 kts 306°
2026-05-05 08:20 -29.56656 30.70620 4303 ft 123 kts 306°
2026-05-05 08:20 -29.56190 30.69815 4300 ft 122 kts 306°
2026-05-05 08:20 -29.55720 30.69005 4295 ft 121 kts 306°
2026-05-05 08:20 -29.55264 30.68220 4344 ft 116 kts 306°
2026-05-05 08:21 -29.54821 30.67458 4444 ft 115 kts 306°
2026-05-05 08:21 -29.54373 30.66680 4443 ft 118 kts 306°
2026-05-05 08:21 -29.53908 30.65881 4450 ft 121 kts 306°
2026-05-05 08:21 -29.53439 30.65072 4451 ft 122 kts 306°
2026-05-05 08:22 -29.52970 30.64266 4455 ft 122 kts 306°
2026-05-05 08:22 -29.52501 30.63458 4456 ft 121 kts 306°
2026-05-05 08:22 -29.52032 30.62648 4456 ft 122 kts 305°
2026-05-05 08:22 -29.51556 30.61828 4459 ft 123 kts 306°
2026-05-05 08:23 -29.51091 30.61020 4452 ft 122 kts 305°
2026-05-05 08:23 -29.50626 30.60210 4452 ft 121 kts 306°
2026-05-05 08:23 -29.50163 30.59411 4449 ft 119 kts 306°
2026-05-05 08:23 -29.49699 30.58619 4453 ft 120 kts 306°
2026-05-05 08:24 -29.49232 30.57823 4454 ft 120 kts 305°
2026-05-05 08:24 -29.48763 30.57020 4451 ft 121 kts 305°
2026-05-05 08:24 -29.48299 30.56223 4454 ft 122 kts 305°
2026-05-05 08:24 -29.47832 30.55418 4459 ft 121 kts 305°
2026-05-05 08:25 -29.47363 30.54614 4457 ft 121 kts 305°
2026-05-05 08:25 -29.46895 30.53811 4488 ft 119 kts 305°
2026-05-05 08:25 -29.46445 30.53036 4580 ft 112 kts 305°
2026-05-05 08:25 -29.46045 30.52346 4816 ft 98 kts 307°
2026-05-05 08:26 -29.45667 30.51695 4995 ft 98 kts 307°
2026-05-05 08:26 -29.45297 30.51060 5168 ft 96 kts 306°
2026-05-05 08:26 -29.44926 30.50422 5371 ft 95 kts 306°
2026-05-05 08:26 -29.44550 30.49777 5462 ft 101 kts 306°
2026-05-05 08:27 -29.44143 30.49081 5477 ft 108 kts 306°
2026-05-05 08:27 -29.43722 30.48359 5471 ft 109 kts 305°
2026-05-05 08:27 -29.43303 30.47640 5474 ft 110 kts 305°
2026-05-05 08:27 -29.42877 30.46909 5477 ft 109 kts 306°
2026-05-05 08:28 -29.42457 30.46191 5476 ft 110 kts 306°
2026-05-05 08:28 -29.42033 30.45461 5470 ft 109 kts 305°
2026-05-05 08:28 -29.41608 30.44732 5472 ft 110 kts 306°
2026-05-05 08:28 -29.41187 30.44011 5472 ft 110 kts 305°
2026-05-05 08:29 -29.40756 30.43283 5475 ft 110 kts 308°
2026-05-05 08:29 -29.40174 30.42735 5469 ft 110 kts 330°
2026-05-05 08:29 -29.39436 30.42482 5475 ft 113 kts 349°
2026-05-05 08:30 -29.37888 30.43030 5475 ft 122 kts 20°
2026-05-05 08:30 -29.37147 30.43478 5476 ft 121 kts 20°
2026-05-05 08:30 -29.36400 30.43934 5479 ft 121 kts 19°
2026-05-05 08:30 -29.35652 30.44391 5474 ft 121 kts 19°
2026-05-05 08:31 -29.34911 30.44843 5471 ft 121 kts 19°
2026-05-05 08:31 -29.34175 30.45292 5474 ft 121 kts 19°
2026-05-05 08:31 -29.33427 30.45749 5469 ft 121 kts 18°
2026-05-05 08:31 -29.32682 30.46205 5476 ft 121 kts 19°
2026-05-05 08:32 -29.31933 30.46663 5475 ft 121 kts 19°
2026-05-05 08:32 -29.31197 30.47113 5471 ft 121 kts 19°
2026-05-05 08:32 -29.30453 30.47566 5473 ft 122 kts 19°
2026-05-05 08:32 -29.29702 30.48023 5468 ft 122 kts 18°
2026-05-05 08:33 -29.28956 30.48478 5473 ft 123 kts 19°
2026-05-05 08:33 -29.28202 30.48939 5467 ft 122 kts 19°
2026-05-05 08:33 -29.27452 30.49398 5464 ft 121 kts 18°
2026-05-05 08:33 -29.26716 30.49846 5465 ft 121 kts 18°
2026-05-05 08:34 -29.25991 30.50289 5457 ft 117 kts 18°
2026-05-05 08:34 -29.25271 30.50727 5465 ft 115 kts 19°
2026-05-05 08:34 -29.24563 30.51157 5467 ft 118 kts 19°
2026-05-05 08:34 -29.23850 30.51593 5466 ft 115 kts 19°
2026-05-05 08:35 -29.23128 30.52031 5466 ft 118 kts 18°
2026-05-05 08:35 -29.22407 30.52469 5471 ft 120 kts 19°
2026-05-05 08:35 -29.21669 30.52922 5470 ft 119 kts 20°
2026-05-05 08:35 -29.20931 30.53369 5474 ft 121 kts 19°
2026-05-05 08:36 -29.20192 30.53821 5474 ft 122 kts 18°
2026-05-05 08:36 -29.19440 30.54277 5477 ft 122 kts 18°
2026-05-05 08:36 -29.18689 30.54735 5476 ft 122 kts 18°
2026-05-05 08:36 -29.17939 30.55193 5474 ft 122 kts 19°
2026-05-05 08:37 -29.17189 30.55648 5478 ft 122 kts 19°
2026-05-05 08:37 -29.16441 30.56102 5472 ft 123 kts 20°
2026-05-05 08:37 -29.15678 30.56568 5470 ft 124 kts 18°
2026-05-05 08:37 -29.14918 30.57031 5468 ft 123 kts 19°
2026-05-05 08:38 -29.14176 30.57482 5464 ft 120 kts 18°
2026-05-05 08:38 -29.13431 30.57927 5459 ft 119 kts 15°
2026-05-05 08:38 -29.12651 30.58055 5491 ft 109 kts 348°
2026-05-05 08:38 -29.11938 30.57826 5557 ft 101 kts 328°
2026-05-05 08:39 -29.11423 30.57380 5798 ft 87 kts 313°
2026-05-05 08:39 -29.11081 30.56828 5955 ft 84 kts 304°
2026-05-05 08:39 -29.10762 30.56283 6103 ft 83 kts 305°
2026-05-05 08:39 -29.10445 30.55733 6187 ft 82 kts 305°
2026-05-05 08:40 -29.10135 30.55191 6254 ft 82 kts 305°
2026-05-05 08:40 -29.09818 30.54642 6360 ft 83 kts 304°
2026-05-05 08:40 -29.09502 30.54089 6440 ft 84 kts 304°
2026-05-05 08:40 -29.09172 30.53517 6463 ft 88 kts 304°
2026-05-05 08:41 -29.08832 30.52925 6473 ft 90 kts 304°
2026-05-05 08:41 -29.08479 30.52310 6479 ft 96 kts 304°
2026-05-05 08:41 -29.08112 30.51673 6471 ft 97 kts 304°
2026-05-05 08:41 -29.07748 30.51038 6485 ft 95 kts 304°
2026-05-05 08:42 -29.07385 30.50405 6481 ft 95 kts 304°
2026-05-05 08:42 -29.07026 30.49777 6474 ft 93 kts 304°
2026-05-05 08:42 -29.06674 30.49169 6476 ft 93 kts 304°
2026-05-05 08:42 -29.06313 30.48538 6479 ft 95 kts 303°
2026-05-05 08:43 -29.05948 30.47903 6481 ft 97 kts 304°
2026-05-05 08:43 -29.05578 30.47260 6485 ft 101 kts 304°
2026-05-05 08:43 -29.05188 30.46582 6482 ft 101 kts 303°
2026-05-05 08:43 -29.04805 30.45917 6480 ft 98 kts 304°
2026-05-05 08:44 -29.04434 30.45271 6473 ft 96 kts 304°
2026-05-05 08:44 -29.04070 30.44637 6476 ft 97 kts 304°
2026-05-05 08:44 -29.03698 30.43989 6473 ft 97 kts 304°
2026-05-05 08:44 -29.03326 30.43343 6475 ft 98 kts 304°
2026-05-05 08:45 -29.02955 30.42699 6475 ft 96 kts 304°
2026-05-05 08:45 -29.02597 30.42076 6472 ft 94 kts 304°
2026-05-05 08:45 -29.02235 30.41443 6473 ft 96 kts 305°
2026-05-05 08:45 -29.01881 30.40828 6470 ft 89 kts 307°
2026-05-05 08:46 -29.01553 30.40257 6475 ft 89 kts 304°
2026-05-05 08:46 -29.01206 30.39656 6472 ft 91 kts 305°
2026-05-05 08:46 -29.00849 30.39036 6478 ft 96 kts 305°
2026-05-05 08:46 -29.00487 30.38414 6482 ft 93 kts 304°
2026-05-05 08:47 -29.00130 30.37788 6478 ft 95 kts 306°
2026-05-05 08:47 -28.99769 30.37160 6483 ft 99 kts 304°
2026-05-05 08:47 -28.99386 30.36498 6475 ft 98 kts 305°
2026-05-05 08:47 -28.99019 30.35861 6471 ft 93 kts 307°
2026-05-05 08:48 -28.98668 30.35252 6476 ft 93 kts 304°
2026-05-05 08:48 -28.98311 30.34631 6477 ft 96 kts 304°
2026-05-05 08:48 -28.97947 30.34001 6475 ft 94 kts 305°
2026-05-05 08:48 -28.97594 30.33387 6475 ft 92 kts 305°
2026-05-05 08:49 -28.97240 30.32772 6499 ft 92 kts 304°
2026-05-05 08:49 -28.96908 30.32196 6667 ft 82 kts 304°
2026-05-05 08:49 -28.96598 30.31658 6773 ft 83 kts 304°
2026-05-05 08:49 -28.96279 30.31105 6879 ft 83 kts 304°
2026-05-05 08:50 -28.95964 30.30558 6978 ft 83 kts 303°
2026-05-05 08:50 -28.95644 30.30004 7076 ft 83 kts 303°
2026-05-05 08:50 -28.95329 30.29459 7165 ft 83 kts 303°
2026-05-05 08:50 -28.95012 30.28909 7250 ft 83 kts 303°
2026-05-05 08:51 -28.94800 30.28542 7317 ft 83 kts 303°
2026-05-05 08:51 -28.94387 30.27825 7430 ft 83 kts 302°
2026-05-05 08:51 -28.94188 30.27482 7476 ft 83 kts 302°
2026-05-05 08:51 -28.93869 30.26928 7545 ft 83 kts 302°
2026-05-05 08:52 -28.93443 30.26190 7649 ft 84 kts 303°
2026-05-05 08:52 -28.93118 30.25629 7746 ft 85 kts 303°
2026-05-05 08:52 -28.92904 30.25258 7803 ft 81 kts 303°
2026-05-05 08:52 -28.92579 30.24694 7866 ft 86 kts 303°
2026-05-05 08:53 -28.92251 30.24130 7958 ft 85 kts 302°
2026-05-05 08:53 -28.91925 30.23562 8069 ft 86 kts 303°
2026-05-05 08:53 -28.91600 30.23002 8156 ft 84 kts 302°
2026-05-05 08:53 -28.91277 30.22443 8207 ft 84 kts 302°
2026-05-05 08:54 -28.90948 30.21873 8356 ft 87 kts 303°
2026-05-05 08:54 -28.90618 30.21304 8479 ft 87 kts 303°
2026-05-05 08:54 -28.90271 30.20704 8486 ft 93 kts 303°
2026-05-05 08:54 -28.89907 30.20075 8493 ft 95 kts 303°
2026-05-05 08:55 -28.89545 30.19449 8496 ft 96 kts 303°
2026-05-05 08:55 -28.89172 30.18804 8497 ft 97 kts 303°
2026-05-05 08:55 -28.88797 30.18157 8492 ft 98 kts 303°
2026-05-05 08:55 -28.88426 30.17516 8493 ft 96 kts 303°
2026-05-05 08:56 -28.88058 30.16880 8494 ft 98 kts 303°
2026-05-05 08:56 -28.87685 30.16235 8497 ft 97 kts 303°
2026-05-05 08:56 -28.87314 30.15595 8499 ft 97 kts 303°
2026-05-05 08:56 -28.86942 30.14952 8499 ft 97 kts 303°
2026-05-05 08:57 -28.86573 30.14316 8500 ft 97 kts 303°
2026-05-05 08:57 -28.86200 30.13672 8498 ft 97 kts 303°
2026-05-05 08:57 -28.85834 30.13040 8496 ft 96 kts 303°
2026-05-05 08:57 -28.85463 30.12400 8494 ft 96 kts 303°
2026-05-05 08:58 -28.85093 30.11761 8498 ft 96 kts 303°
2026-05-05 08:58 -28.84730 30.11134 8496 ft 95 kts 303°
2026-05-05 08:58 -28.84363 30.10501 8496 ft 96 kts 303°
2026-05-05 08:58 -28.83997 30.09870 8495 ft 95 kts 302°
2026-05-05 08:59 -28.83636 30.09246 8493 ft 95 kts 303°
2026-05-05 08:59 -28.83267 30.08609 8496 ft 97 kts 302°
2026-05-05 08:59 -28.82899 30.07975 8497 ft 95 kts 302°
2026-05-05 08:59 -28.82534 30.07347 8498 ft 95 kts 302°
2026-05-05 09:00 -28.82169 30.06718 8500 ft 96 kts 302°
2026-05-05 09:00 -28.81796 30.06075 8494 ft 96 kts 302°
2026-05-05 09:00 -28.81425 30.05436 8487 ft 96 kts 301°
2026-05-05 09:00 -28.81065 30.04815 8485 ft 94 kts 302°
2026-05-05 09:01 -28.80697 30.04181 8487 ft 96 kts 302°
2026-05-05 09:01 -28.80327 30.03546 8488 ft 95 kts 302°
2026-05-05 09:01 -28.79963 30.02917 8491 ft 95 kts 302°
2026-05-05 09:01 -28.79601 30.02293 8488 ft 95 kts 302°
2026-05-05 09:02 -28.79238 30.01669 8493 ft 96 kts 303°
2026-05-05 09:02 -28.78868 30.01032 8491 ft 95 kts 302°
2026-05-05 09:02 -28.78504 30.00404 8495 ft 95 kts 303°
2026-05-05 09:02 -28.78135 29.99770 8493 ft 97 kts 303°
2026-05-05 09:03 -28.77767 29.99138 8492 ft 97 kts 303°
2026-05-05 09:03 -28.77394 29.98496 8494 ft 97 kts 303°
2026-05-05 09:03 -28.77022 29.97855 8495 ft 96 kts 303°
2026-05-05 09:03 -28.76655 29.97225 8494 ft 95 kts 303°
2026-05-05 09:04 -28.76492 29.96503 8495 ft 103 kts 268°
2026-05-05 09:04 -28.76655 29.95710 8499 ft 104 kts 268°
2026-05-05 09:04 -28.76807 29.94903 8502 ft 104 kts 268°
2026-05-05 09:04 -28.76721 29.94154 8501 ft 95 kts 303°
2026-05-05 09:05 -28.76355 29.93525 8501 ft 94 kts 302°
2026-05-05 09:05 -28.75974 29.92931 8502 ft 95 kts 316°
2026-05-05 09:05 -28.75426 29.92498 8504 ft 97 kts 320°
2026-05-05 09:05 -28.74870 29.92055 8507 ft 98 kts 320°
2026-05-05 09:06 -28.74246 29.91743 8505 ft 102 kts 337°
2026-05-05 09:06 -28.73608 29.91431 8504 ft 98 kts 322°
2026-05-05 09:06 -28.73122 29.90919 8504 ft 95 kts 305°
2026-05-05 09:06 -28.72719 29.90329 8504 ft 95 kts 307°
2026-05-05 09:07 -28.72330 29.89722 8503 ft 94 kts 305°
2026-05-05 09:07 -28.71949 29.89101 8501 ft 96 kts 304°
2026-05-05 09:07 -28.71569 29.88467 8507 ft 97 kts 304°
2026-05-05 09:07 -28.71196 29.87837 8507 ft 97 kts 304°
2026-05-05 09:08 -28.70819 29.87197 8507 ft 97 kts 303°
2026-05-05 09:08 -28.70446 29.86557 8507 ft 97 kts 303°
2026-05-05 09:08 -28.70075 29.85924 8504 ft 97 kts 303°
2026-05-05 09:08 -28.69700 29.85282 8506 ft 97 kts 303°
2026-05-05 09:09 -28.69323 29.84635 8501 ft 98 kts 304°
2026-05-05 09:09 -28.68950 29.83996 8505 ft 97 kts 303°
2026-05-05 09:09 -28.68580 29.83362 8505 ft 97 kts 303°
2026-05-05 09:09 -28.68207 29.82722 8503 ft 96 kts 303°
2026-05-05 09:10 -28.67836 29.82087 8503 ft 96 kts 303°
2026-05-05 09:10 -28.67467 29.81453 8504 ft 95 kts 303°
2026-05-05 09:10 -28.67104 29.80832 8506 ft 96 kts 303°
2026-05-05 09:10 -28.66737 29.80204 8507 ft 95 kts 303°
2026-05-05 09:11 -28.66371 29.79578 8504 ft 93 kts 305°
2026-05-05 09:11 -28.66018 29.78972 8505 ft 91 kts 304°
2026-05-05 09:11 -28.65660 29.78360 8508 ft 96 kts 303°
2026-05-05 09:11 -28.65293 29.77732 8504 ft 94 kts 303°
2026-05-05 09:12 -28.64927 29.77106 8507 ft 95 kts 303°
2026-05-05 09:12 -28.64560 29.76477 8507 ft 95 kts 303°
2026-05-05 09:12 -28.64193 29.75848 8508 ft 96 kts 303°
2026-05-05 09:12 -28.63830 29.75228 8509 ft 95 kts 303°
2026-05-05 09:13 -28.63463 29.74599 8507 ft 95 kts 303°
2026-05-05 09:13 -28.63093 29.73969 8507 ft 96 kts 303°
2026-05-05 09:13 -28.62725 29.73338 8510 ft 97 kts 304°
2026-05-05 09:13 -28.62352 29.72701 8512 ft 97 kts 303°
2026-05-05 09:14 -28.61977 29.72061 8510 ft 97 kts 304°
2026-05-05 09:14 -28.61603 29.71420 8507 ft 96 kts 304°
2026-05-05 09:14 -28.61237 29.70794 8511 ft 96 kts 304°
2026-05-05 09:14 -28.60865 29.70161 8508 ft 96 kts 304°
2026-05-05 09:15 -28.60499 29.69533 8505 ft 94 kts 304°
2026-05-05 09:15 -28.60120 29.68918 8506 ft 96 kts 305°
2026-05-05 09:15 -28.59737 29.68301 8510 ft 97 kts 305°
2026-05-05 09:15 -28.59346 29.67671 8508 ft 97 kts 305°
2026-05-05 09:16 -28.58955 29.67039 8508 ft 97 kts 305°
2026-05-05 09:16 -28.58565 29.66411 8513 ft 97 kts 305°
2026-05-05 09:16 -28.58178 29.65786 8513 ft 97 kts 305°
2026-05-05 09:16 -28.57787 29.65158 8512 ft 97 kts 305°
2026-05-05 09:17 -28.57405 29.64540 8512 ft 97 kts 305°
2026-05-05 09:17 -28.57014 29.63912 8513 ft 97 kts 305°
2026-05-05 09:17 -28.56625 29.63284 8510 ft 97 kts 305°
2026-05-05 09:17 -28.56236 29.62659 8512 ft 96 kts 305°
2026-05-05 09:18 -28.55852 29.62039 8512 ft 97 kts 306°
2026-05-05 09:18 -28.55465 29.61415 8516 ft 96 kts 305°
2026-05-05 09:18 -28.55074 29.60787 8516 ft 97 kts 305°
2026-05-05 09:18 -28.54683 29.60158 8514 ft 98 kts 306°
2026-05-05 09:19 -28.54296 29.59536 8515 ft 97 kts 305°
2026-05-05 09:19 -28.53906 29.58908 8517 ft 97 kts 305°
2026-05-05 09:19 -28.53514 29.58278 8516 ft 97 kts 305°
2026-05-05 09:19 -28.53125 29.57650 8521 ft 96 kts 306°
2026-05-05 09:20 -28.52740 29.57032 8521 ft 97 kts 305°
2026-05-05 09:20 -28.52349 29.56404 8521 ft 97 kts 305°
2026-05-05 09:20 -28.51963 29.55782 8516 ft 96 kts 306°
2026-05-05 09:20 -28.51580 29.55167 8522 ft 96 kts 305°
2026-05-05 09:21 -28.51194 29.54546 8523 ft 97 kts 305°
2026-05-05 09:21 -28.50808 29.53924 8524 ft 95 kts 304°
2026-05-05 09:21 -28.50429 29.53317 8523 ft 94 kts 306°
2026-05-05 09:21 -28.49813 29.53074 8514 ft 113 kts
2026-05-05 09:22 -28.49088 29.53534 8521 ft 120 kts 16°
2026-05-05 09:22 -28.48365 29.54013 8524 ft 120 kts 15°
2026-05-05 09:22 -28.47656 29.54500 8527 ft 121 kts 16°
2026-05-05 09:22 -28.46926 29.54991 8525 ft 122 kts 16°
2026-05-05 09:23 -28.46193 29.55489 8523 ft 123 kts 17°
2026-05-05 09:23 -28.45456 29.55986 8526 ft 122 kts 16°
2026-05-05 09:23 -28.44730 29.56463 8526 ft 122 kts 16°
2026-05-05 09:23 -28.43990 29.56953 8531 ft 123 kts 16°
2026-05-05 09:24 -28.43203 29.57455 8191 ft 134 kts 16°
2026-05-05 09:24 -28.42396 29.57967 7607 ft 130 kts 17°
2026-05-05 09:24 -28.41634 29.58455 7524 ft 123 kts 15°
2026-05-05 09:24 -28.40917 29.58512 7511 ft 98 kts 322°
2026-05-05 09:25 -28.40482 29.57945 7518 ft 94 kts 308°
2026-05-05 09:25 -28.40064 29.57375 7515 ft 93 kts 308°
2026-05-05 09:25 -28.39656 29.56810 7519 ft 94 kts 308°
2026-05-05 09:25 -28.39237 29.56232 7524 ft 94 kts 308°
2026-05-05 09:26 -28.38814 29.55646 7527 ft 97 kts 308°
2026-05-05 09:26 -28.38386 29.55055 7527 ft 96 kts 307°
2026-05-05 09:26 -28.38229 29.54338 7527 ft 97 kts 278°
2026-05-05 09:26 -28.38221 29.53577 7525 ft 97 kts 279°
2026-05-05 09:27 -28.38204 29.52798 7599 ft 96 kts 279°
2026-05-05 09:27 -28.38197 29.52091 7889 ft 86 kts 279°
2026-05-05 09:27 -28.38187 29.51419 8051 ft 86 kts 279°
2026-05-05 09:27 -28.38169 29.50745 8157 ft 84 kts 279°
2026-05-05 09:28 -28.38156 29.50073 8218 ft 86 kts 279°
2026-05-05 09:28 -28.38154 29.49381 8303 ft 88 kts 279°
2026-05-05 09:28 -28.38157 29.48702 8495 ft 86 kts 279°
2026-05-05 09:28 -28.38149 29.48024 8698 ft 85 kts 279°
2026-05-05 09:29 -28.38137 29.47357 8894 ft 86 kts 279°
2026-05-05 09:29 -28.38124 29.46678 9073 ft 86 kts 279°
2026-05-05 09:29 -28.38117 29.45995 9234 ft 86 kts 279°
2026-05-05 09:29 -28.38113 29.45318 9422 ft 86 kts 279°
2026-05-05 09:30 -28.38113 29.44648 9543 ft 85 kts 279°
2026-05-05 09:30 -28.38118 29.43976 9634 ft 85 kts 279°
2026-05-05 09:30 -28.38118 29.43295 9755 ft 86 kts 279°
2026-05-05 09:30 -28.38115 29.42628 9860 ft 84 kts 279°
2026-05-05 09:31 -28.38104 29.41972 9884 ft 82 kts 280°
2026-05-05 09:31 -28.38087 29.41313 9935 ft 84 kts 278°
2026-05-05 09:31 -28.38084 29.40654 9932 ft 83 kts 280°
2026-05-05 09:31 -28.38096 29.39995 9952 ft 85 kts 279°
2026-05-05 09:32 -28.38106 29.39313 10076 ft 87 kts 279°
2026-05-05 09:32 -28.38115 29.38625 10226 ft 87 kts 280°
2026-05-05 09:32 -28.38126 29.37939 10364 ft 87 kts 279°
2026-05-05 09:32 -28.38132 29.37262 10531 ft 87 kts 279°
2026-05-05 09:33 -28.38132 29.36541 10553 ft 95 kts 279°
2026-05-05 09:33 -28.38128 29.35767 10558 ft 100 kts 279°
2026-05-05 09:33 -28.38153 29.34971 10562 ft 103 kts 276°
2026-05-05 09:33 -28.38115 29.34169 10558 ft 100 kts 287°
2026-05-05 09:34 -28.37885 29.33437 10562 ft 98 kts 303°
2026-05-05 09:34 -28.37535 29.32780 10564 ft 97 kts 302°
2026-05-05 09:34 -28.37170 29.32135 10558 ft 98 kts 303°
2026-05-05 09:34 -28.36787 29.31488 10555 ft 99 kts 304°
2026-05-05 09:35 -28.36398 29.30850 10564 ft 97 kts 304°
2026-05-05 09:35 -28.35633 29.29613 10563 ft 96 kts 305°
2026-05-05 09:35 -28.35244 29.28988 10568 ft 97 kts 305°
2026-05-05 09:36 -28.34850 29.28357 10572 ft 98 kts 305°
2026-05-05 09:36 -28.34457 29.27729 10561 ft 96 kts 304°
2026-05-05 09:36 -28.33943 29.27292 10566 ft 104 kts 339°
2026-05-05 09:36 -28.33208 29.27232 10568 ft 106 kts 342°
2026-05-05 09:37 -28.32474 29.27155 10566 ft 108 kts 347°
2026-05-05 09:37 -28.31731 29.27150 10573 ft 106 kts 344°
2026-05-05 09:37 -28.30984 29.27115 10572 ft 108 kts 344°
2026-05-05 09:37 -28.30229 29.27089 10571 ft 109 kts 344°
2026-05-05 09:38 -28.29463 29.27060 10572 ft 111 kts 345°
2026-05-05 09:38 -28.28690 29.27010 10577 ft 111 kts 345°
2026-05-05 09:38 -28.27926 29.26960 10571 ft 112 kts 345°
2026-05-05 09:38 -28.27147 29.26909 10576 ft 112 kts 345°
2026-05-05 09:39 -28.26632 29.26868 10577 ft 110 kts 342°
2026-05-05 09:39 -28.25816 29.26368 10571 ft 99 kts 320°
2026-05-05 09:39 -28.25458 29.26050 10572 ft 98 kts 311°
2026-05-05 09:39 -28.24903 29.25232 10579 ft 99 kts 307°
2026-05-05 09:40 -28.24490 29.24616 10575 ft 97 kts 307°
2026-05-05 09:40 -28.24217 29.24206 10574 ft 98 kts 307°
2026-05-05 09:40 -28.23803 29.23587 10578 ft 98 kts 307°
2026-05-05 09:40 -28.23395 29.22976 10576 ft 98 kts 307°
2026-05-05 09:41 -28.22984 29.22365 10580 ft 97 kts 307°
2026-05-05 09:41 -28.22572 29.21751 10578 ft 97 kts 307°
2026-05-05 09:41 -28.22032 29.20945 10581 ft 97 kts 307°
2026-05-05 09:41 -28.21760 29.20540 10584 ft 97 kts 307°
2026-05-05 09:42 -28.21347 29.19925 10580 ft 97 kts 307°
2026-05-05 09:42 -28.20935 29.19313 10575 ft 96 kts 307°
2026-05-05 09:42 -28.20533 29.18718 10582 ft 97 kts 307°
2026-05-05 09:42 -28.20119 29.18095 10591 ft 99 kts 307°
2026-05-05 09:43 -28.19699 29.17471 10593 ft 99 kts 307°
2026-05-05 09:43 -28.19281 29.16849 10591 ft 98 kts 307°
2026-05-05 09:43 -28.18870 29.16239 10590 ft 98 kts 307°
2026-05-05 09:43 -28.18453 29.15620 10591 ft 98 kts 307°
2026-05-05 09:44 -28.18037 29.15002 10587 ft 98 kts 307°
2026-05-05 09:44 -28.17628 29.14396 10591 ft 98 kts 307°
2026-05-05 09:44 -28.17215 29.13782 10593 ft 98 kts 307°
2026-05-05 09:44 -28.16797 29.13166 10590 ft 98 kts 307°
2026-05-05 09:45 -28.16388 29.12559 10591 ft 98 kts 307°
2026-05-05 09:45 -28.15974 29.11946 10592 ft 98 kts 307°
2026-05-05 09:45 -28.15556 29.11327 10596 ft 99 kts 307°
2026-05-05 09:45 -28.15140 29.10707 10595 ft 98 kts 307°
2026-05-05 09:46 -28.14690 29.10136 10592 ft 99 kts 316°
2026-05-05 09:46 -28.14114 29.09699 10589 ft 100 kts 325°
2026-05-05 09:46 -28.13433 29.09459 10594 ft 107 kts 342°
2026-05-05 09:46 -28.12704 29.09351 10594 ft 107 kts 342°
2026-05-05 09:47 -28.11976 29.09224 10593 ft 101 kts 327°
2026-05-05 09:47 -28.11514 29.08669 10593 ft 97 kts 307°
2026-05-05 09:47 -28.11086 29.08070 10599 ft 98 kts 308°
2026-05-05 09:47 -28.10657 29.07471 10592 ft 99 kts 308°
2026-05-05 09:48 -28.10231 29.06876 10505 ft 96 kts 308°
2026-05-05 09:48 -28.09809 29.06285 10305 ft 97 kts 308°
2026-05-05 09:48 -28.09380 29.05692 10124 ft 97 kts 308°
2026-05-05 09:48 -28.08955 29.05106 9941 ft 96 kts 308°
2026-05-05 09:49 -28.08527 29.04520 9741 ft 97 kts 308°
2026-05-05 09:49 -28.08101 29.03937 9549 ft 97 kts 308°
2026-05-05 09:49 -28.07668 29.03341 9363 ft 99 kts 308°
2026-05-05 09:49 -28.07233 29.02731 9177 ft 100 kts 308°
2026-05-05 09:50 -28.06795 29.02119 9017 ft 100 kts 308°
2026-05-05 09:50 -28.06358 29.01511 8860 ft 101 kts 308°
2026-05-05 09:50 -28.05917 29.00900 8712 ft 99 kts 308°
2026-05-05 09:50 -28.05477 29.00297 8596 ft 97 kts 308°
2026-05-05 09:51 -28.05060 28.99726 8542 ft 94 kts 308°
2026-05-05 09:51 -28.04634 28.99150 8400 ft 96 kts 308°
2026-05-05 09:51 -28.04203 28.98571 8303 ft 96 kts 309°
2026-05-05 09:51 -28.03777 28.97981 8201 ft 99 kts 308°
2026-05-05 09:52 -28.03266 28.97477 8136 ft 104 kts 339°
2026-05-05 09:52 -28.02513 28.97523 8056 ft 112 kts
2026-05-05 09:52 -28.01753 28.97729 8008 ft 112 kts
2026-05-05 09:52 -28.00991 28.97920 7916 ft 112 kts
2026-05-05 09:53 -28.00321 28.97733 7782 ft 99 kts 319°
2026-05-05 09:53 -27.99766 28.97252 7689 ft 102 kts 320°
2026-05-05 09:53 -27.99190 28.96778 7586 ft 103 kts 320°
2026-05-05 09:53 -27.98601 28.96304 7477 ft 103 kts 320°
2026-05-05 09:54 -27.98016 28.95839 7416 ft 103 kts 320°
2026-05-05 09:54 -27.97437 28.95378 7388 ft 103 kts 320°
2026-05-05 09:54 -27.96852 28.94906 7352 ft 103 kts 320°
2026-05-05 09:54 -27.96264 28.94434 7310 ft 103 kts 323°
2026-05-05 09:55 -27.95551 28.94338 7240 ft 111 kts
2026-05-05 09:55 -27.94789 28.94453 7197 ft 110 kts 359°
2026-05-05 09:55 -27.94056 28.94556 6958 ft 105 kts 359°
2026-05-05 09:55 -27.93313 28.94671 6597 ft 108 kts 360°
2026-05-05 09:56 -27.92539 28.94785 6599 ft 115 kts 359°
2026-05-05 09:56 -27.91746 28.94909 6602 ft 120 kts 359°
2026-05-05 09:56 -27.90918 28.95053 6601 ft 117 kts 360°
2026-05-05 09:56 -27.90113 28.95158 6592 ft 114 kts 358°
2026-05-05 09:57 -27.89317 28.95276 6596 ft 118 kts 358°
2026-05-05 09:57 -27.88497 28.95410 6655 ft 120 kts
2026-05-05 09:57 -27.87743 28.95538 6961 ft 101 kts
2026-05-05 09:57 -27.87054 28.95661 7187 ft 101 kts 360°
2026-05-05 09:58 -27.86355 28.95800 7428 ft 101 kts 359°
2026-05-05 09:58 -27.85673 28.95950 7675 ft 98 kts 359°
2026-05-05 09:58 -27.85023 28.96108 7879 ft 96 kts 359°
2026-05-05 09:58 -27.84364 28.96268 8059 ft 97 kts 359°
2026-05-05 09:59 -27.83706 28.96409 8233 ft 96 kts 359°
2026-05-05 09:59 -27.83047 28.96573 8366 ft 100 kts 359°
2026-05-05 09:59 -27.82363 28.96750 8521 ft 100 kts 360°
2026-05-05 09:59 -27.81678 28.96918 8590 ft 105 kts 359°
2026-05-05 10:00 -27.80936 28.97086 8594 ft 112 kts 359°
2026-05-05 10:00 -27.80163 28.97260 8592 ft 114 kts 359°
2026-05-05 10:00 -27.79378 28.97431 8594 ft 114 kts
2026-05-05 10:00 -27.78606 28.97591 8595 ft 113 kts 360°
2026-05-05 10:01 -27.77833 28.97741 8594 ft 112 kts 359°
2026-05-05 10:01 -27.77059 28.97896 8598 ft 115 kts 359°
2026-05-05 10:01 -27.76251 28.98048 8588 ft 119 kts 359°
2026-05-05 10:01 -27.75431 28.98208 8590 ft 119 kts 360°
2026-05-05 10:02 -27.74621 28.98378 8590 ft 119 kts
2026-05-05 10:02 -27.73801 28.98538 8585 ft 118 kts 359°
2026-05-05 10:02 -27.73001 28.98690 8586 ft 117 kts 359°
2026-05-05 10:02 -27.72189 28.98844 8586 ft 119 kts
2026-05-05 10:03 -27.71382 28.98950 8584 ft 115 kts 347°
2026-05-05 10:03 -27.70637 28.98721 8584 ft 109 kts 332°
2026-05-05 10:03 -27.70014 28.98267 8583 ft 106 kts 315°
2026-05-05 10:03 -27.69465 28.97714 8580 ft 106 kts 315°
2026-05-05 10:04 -27.68930 28.97142 8589 ft 108 kts 312°
2026-05-05 10:04 -27.68388 28.96542 8586 ft 110 kts 313°
2026-05-05 10:04 -27.67849 28.95934 8583 ft 110 kts 313°
2026-05-05 10:04 -27.67311 28.95324 8587 ft 110 kts 313°
2026-05-05 10:05 -27.66778 28.94717 8585 ft 110 kts 313°
2026-05-05 10:05 -27.66239 28.94102 8586 ft 110 kts 312°
2026-05-05 10:05 -27.65699 28.93487 8587 ft 110 kts 314°
2026-05-05 10:05 -27.65158 28.92870 8585 ft 111 kts 313°
2026-05-05 10:06 -27.64625 28.92264 8582 ft 110 kts 312°
2026-05-05 10:06 -27.64095 28.91659 8572 ft 107 kts 313°
2026-05-05 10:06 -27.63574 28.91065 8569 ft 106 kts 313°
2026-05-05 10:06 -27.63058 28.90477 8570 ft 105 kts 313°
2026-05-05 10:07 -27.62540 28.89886 8568 ft 106 kts 313°
2026-05-05 10:07 -27.62016 28.89289 8569 ft 108 kts 313°
2026-05-05 10:07 -27.61493 28.88694 8572 ft 108 kts 313°
2026-05-05 10:07 -27.60961 28.88089 8565 ft 107 kts 313°
2026-05-05 10:08 -27.60443 28.87498 8568 ft 104 kts 314°
2026-05-05 10:08 -27.59930 28.86913 8566 ft 106 kts 313°
2026-05-05 10:08 -27.59409 28.86320 8561 ft 107 kts 314°
2026-05-05 10:08 -27.58887 28.85726 8562 ft 106 kts 314°
2026-05-05 10:09 -27.58380 28.85147 8561 ft 105 kts 314°
2026-05-05 10:09 -27.57871 28.84569 8564 ft 105 kts 314°
2026-05-05 10:09 -27.57357 28.83985 8568 ft 104 kts 314°
2026-05-05 10:09 -27.56842 28.83399 8572 ft 105 kts 313°
2026-05-05 10:10 -27.56328 28.82814 8570 ft 107 kts 313°
2026-05-05 10:10 -27.55800 28.82213 8578 ft 108 kts 313°
2026-05-05 10:10 -27.55275 28.81618 8556 ft 104 kts 313°
2026-05-05 10:10 -27.54763 28.81035 8299 ft 105 kts 314°
2026-05-05 10:11 -27.54242 28.80445 7852 ft 108 kts 314°
2026-05-05 10:11 -27.53714 28.79844 7567 ft 103 kts 315°
2026-05-05 10:11 -27.53227 28.79288 7561 ft 98 kts 315°
2026-05-05 10:11 -27.52760 28.78756 7558 ft 95 kts 315°
2026-05-05 10:12 -27.52299 28.78233 7557 ft 93 kts 315°
2026-05-05 10:12 -27.51844 28.77715 7558 ft 94 kts 315°
2026-05-05 10:12 -27.51387 28.77196 7558 ft 92 kts 315°
2026-05-05 10:12 -27.50945 28.76693 7556 ft 91 kts 315°
2026-05-05 10:13 -27.50500 28.76187 7558 ft 91 kts 315°
2026-05-05 10:13 -27.50056 28.75684 7559 ft 92 kts 315°
2026-05-05 10:13 -27.49605 28.75172 7560 ft 92 kts 315°
2026-05-05 10:13 -27.49153 28.74658 7555 ft 92 kts 314°
2026-05-05 10:14 -27.48705 28.74150 7557 ft 91 kts 315°
2026-05-05 10:14 -27.48260 28.73642 7561 ft 91 kts 315°
2026-05-05 10:14 -27.47817 28.73140 7560 ft 91 kts 315°
2026-05-05 10:14 -27.47367 28.72631 7559 ft 91 kts 315°
2026-05-05 10:15 -27.46918 28.72122 7555 ft 91 kts 315°
2026-05-05 10:15 -27.46474 28.71617 7548 ft 89 kts 315°
2026-05-05 10:15 -27.46046 28.71132 7494 ft 86 kts 315°
2026-05-05 10:15 -27.45602 28.70631 7185 ft 95 kts 315°
2026-05-05 10:16 -27.45128 28.70092 6998 ft 96 kts 315°
2026-05-05 10:16 -27.44669 28.69571 6887 ft 94 kts 315°
2026-05-05 10:16 -27.44202 28.69042 6750 ft 95 kts 315°
2026-05-05 10:16 -27.43738 28.68517 6654 ft 94 kts 315°
2026-05-05 10:17 -27.43279 28.67994 6572 ft 94 kts 316°
2026-05-05 10:17 -27.42827 28.67482 6558 ft 91 kts 316°
2026-05-05 10:17 -27.42387 28.66984 6557 ft 88 kts 317°
2026-05-05 10:17 -27.41960 28.66502 6553 ft 85 kts 317°
2026-05-05 10:18 -27.41540 28.66026 6546 ft 86 kts 316°
2026-05-05 10:18 -27.41119 28.65545 6553 ft 85 kts 317°
2026-05-05 10:18 -27.40697 28.65068 6551 ft 88 kts 317°
2026-05-05 10:18 -27.40268 28.64582 6551 ft 86 kts 316°
2026-05-05 10:19 -27.39841 28.64097 6547 ft 85 kts 316°
2026-05-05 10:19 -27.39430 28.63631 6542 ft 83 kts 317°
2026-05-05 10:19 -27.39028 28.63177 6545 ft 84 kts 315°
2026-05-05 10:19 -27.38615 28.62710 6544 ft 83 kts 317°
2026-05-05 10:20 -27.38219 28.62262 6547 ft 81 kts 315°
2026-05-05 10:20 -27.37813 28.61803 6545 ft 83 kts 317°
2026-05-05 10:20 -27.37403 28.61338 6555 ft 83 kts 315°
2026-05-05 10:20 -27.36994 28.60874 6546 ft 82 kts 317°
2026-05-05 10:21 -27.36591 28.60424 6552 ft 83 kts 315°
2026-05-05 10:21 -27.36189 28.59964 6548 ft 82 kts 316°
2026-05-05 10:21 -27.35786 28.59509 6544 ft 82 kts 316°
2026-05-05 10:21 -27.35382 28.59053 6543 ft 82 kts 316°
2026-05-05 10:22 -27.34984 28.58601 6541 ft 82 kts 316°
2026-05-05 10:22 -27.34585 28.58150 6540 ft 81 kts 314°
2026-05-05 10:22 -27.34184 28.57696 6541 ft 81 kts 313°
2026-05-05 10:22 -27.33784 28.57244 6543 ft 82 kts 313°
2026-05-05 10:23 -27.33388 28.56797 6539 ft 82 kts 313°
2026-05-05 10:23 -27.32985 28.56340 6543 ft 82 kts 313°
2026-05-05 10:23 -27.32590 28.55895 6546 ft 79 kts 314°
2026-05-05 10:23 -27.32195 28.55427 6556 ft 83 kts 311°
2026-05-05 10:24 -27.31854 28.54905 6444 ft 84 kts 307°
2026-05-05 10:24 -27.31559 28.54371 6354 ft 80 kts 304°
2026-05-05 10:24 -27.31409 28.53800 6103 ft 77 kts 289°
2026-05-05 10:24 -27.31306 28.53187 5923 ft 81 kts 289°
2026-05-05 10:25 -27.31173 28.52558 5774 ft 81 kts 288°
2026-05-05 10:25 -27.30989 28.51958 5586 ft 79 kts 301°
2026-05-05 10:25 -27.30519 28.51692 5454 ft 84 kts 349°
2026-05-05 10:25 -27.29949 28.51548 5351 ft 82 kts 336°
2026-05-05 10:26 -27.29432 28.51501 5236 ft 69 kts 338°
2026-05-05 10:26 -27.28958 28.51435 5182 ft 67 kts 342°
2026-05-05 10:26 -27.28617 28.51378 5179 ft 35 kts 356°
2026-05-05 10:26 -27.28417 28.51360 5180 ft 16 kts 351°
2026-05-05 10:27 -27.28388 28.51359 5187 ft 5 kts 177°
2026-05-05 10:27 -27.28413 28.51362 5180 ft 2 kts 172°
2026-05-05 10:27 -27.28490 28.51367 5181 ft 19 kts 175°
2026-05-05 10:27 -27.28624 28.51385 5179 ft 20 kts 173°
2026-05-05 10:28 -27.28710 28.51397 5182 ft 13 kts 185°
2026-05-05 10:28 -27.28739 28.51357 5176 ft 3 kts 224°
2026-05-05 10:28 -27.28789 28.51323 5177 ft 10 kts 208°
2026-05-05 10:28 -27.28840 28.51303 5179 ft 4 kts 204°
2026-05-05 10:29 -27.28866 28.51306 5177 ft 8 kts 109°
2026-05-05 10:29 -27.28858 28.51304 5176 ft 12 kts 281°
2026-05-05 10:29 -27.28841 28.51228 5174 ft 6 kts 296°
2026-05-05 10:29 -27.28831 28.51192 5183 ft 11 kts 307°
2026-05-05 10:30 -27.28782 28.51220 5179 ft 8 kts 116°
2026-05-05 10:30 -27.28798 28.51232 5180 ft 0 kts 79°
2026-05-05 11:36 -27.28796 28.51240 5183 ft 6 kts 75°
2026-05-05 11:36 -27.28785 28.51324 5177 ft 15 kts 73°
2026-05-05 11:37 -27.28762 28.51395 5178 ft 8 kts 45°
2026-05-05 11:37 -27.28769 28.51409 5177 ft 5 kts 184°
2026-05-05 11:37 -27.29046 28.51441 5183 ft 68 kts 198°
2026-05-05 11:37 -27.29546 28.51248 5345 ft 87 kts 208°
2026-05-05 11:38 -27.30184 28.51264 5535 ft 116 kts 137°
2026-05-05 11:38 -27.30148 28.52049 5680 ft 98 kts 24°
2026-05-05 11:38 -27.29484 28.52107 5844 ft 96 kts 349°
2026-05-05 11:38 -27.28790 28.51917 5782 ft 111 kts 328°
2026-05-05 11:39 -27.28206 28.51421 5950 ft 99 kts 332°
2026-05-05 11:39 -27.27606 28.51151 6152 ft 93 kts 332°
2026-05-05 11:39 -27.26993 28.50868 6266 ft 96 kts 333°
2026-05-05 11:39 -27.26384 28.50608 6420 ft 92 kts 334°
2026-05-05 11:40 -27.25795 28.50364 6541 ft 92 kts 334°
2026-05-05 11:40 -27.25188 28.50118 6632 ft 94 kts 335°
2026-05-05 11:40 -27.24570 28.49871 6722 ft 94 kts 335°
2026-05-05 11:40 -27.23943 28.49621 6792 ft 97 kts 335°
2026-05-05 11:41 -27.23302 28.49367 6890 ft 98 kts 335°
2026-05-05 11:41 -27.22672 28.49118 7012 ft 96 kts 336°
2026-05-05 11:41 -27.22038 28.48868 7130 ft 96 kts 335°
2026-05-05 11:41 -27.21410 28.48620 7272 ft 95 kts 336°
2026-05-05 11:42 -27.20791 28.48376 7412 ft 94 kts 335°
2026-05-05 11:42 -27.20164 28.48128 7481 ft 98 kts 335°
2026-05-05 11:42 -27.19505 28.47868 7487 ft 102 kts 336°
2026-05-05 11:42 -27.18839 28.47606 7493 ft 103 kts 336°
2026-05-05 11:43 -27.18163 28.47340 7492 ft 102 kts 336°
2026-05-05 11:43 -27.17491 28.47075 7490 ft 102 kts 336°
2026-05-05 11:43 -27.16817 28.46809 7488 ft 103 kts 336°
2026-05-05 11:43 -27.16147 28.46545 7485 ft 104 kts 337°
2026-05-05 11:44 -27.15459 28.46274 7487 ft 105 kts 337°
2026-05-05 11:44 -27.14763 28.45999 7491 ft 107 kts 336°
2026-05-05 11:44 -27.14050 28.45719 7486 ft 109 kts 336°
2026-05-05 11:44 -27.13334 28.45437 7491 ft 109 kts 336°
2026-05-05 11:45 -27.12616 28.45155 7491 ft 109 kts 335°
2026-05-05 11:45 -27.11899 28.44873 7490 ft 109 kts 336°
2026-05-05 11:45 -27.11200 28.44597 7490 ft 107 kts 336°
2026-05-05 11:45 -27.10501 28.44322 7489 ft 106 kts 336°
2026-05-05 11:46 -27.09810 28.44051 7487 ft 105 kts 336°
2026-05-05 11:46 -27.09125 28.43781 7482 ft 103 kts 336°
2026-05-05 11:46 -27.08459 28.43518 7481 ft 102 kts 336°
2026-05-05 11:46 -27.07788 28.43254 7479 ft 102 kts 336°
2026-05-05 11:47 -27.07122 28.42993 7478 ft 101 kts 336°
2026-05-05 11:47 -27.06454 28.42729 7474 ft 102 kts 336°
2026-05-05 11:47 -27.05781 28.42464 7478 ft 105 kts 336°
2026-05-05 11:47 -27.05086 28.42191 7480 ft 106 kts 336°
2026-05-05 11:48 -27.03696 28.41646 7487 ft 105 kts 336°
2026-05-05 11:48 -27.03014 28.41378 7485 ft 104 kts 336°
2026-05-05 11:48 -27.02332 28.41110 7483 ft 103 kts 336°
2026-05-05 11:49 -27.01654 28.40842 7483 ft 103 kts 337°
2026-05-05 11:49 -27.00983 28.40580 7484 ft 103 kts 337°
2026-05-05 11:49 -27.00305 28.40313 7482 ft 103 kts 336°
2026-05-05 11:49 -26.99629 28.40048 7476 ft 103 kts 336°
2026-05-05 11:50 -26.98957 28.39783 7476 ft 102 kts 336°
2026-05-05 11:50 -26.98289 28.39519 7478 ft 103 kts 336°
2026-05-05 11:50 -26.97604 28.39251 7476 ft 104 kts 336°
2026-05-05 11:50 -26.96916 28.38981 7480 ft 105 kts 336°
2026-05-05 11:51 -26.96235 28.38714 7480 ft 104 kts 336°
2026-05-05 11:51 -26.95553 28.38446 7478 ft 103 kts 336°
2026-05-05 11:51 -26.94875 28.38180 7478 ft 102 kts 337°
2026-05-05 11:51 -26.94218 28.37923 7483 ft 102 kts 336°
2026-05-05 11:52 -26.93547 28.37658 7486 ft 103 kts 337°
2026-05-05 11:52 -26.92872 28.37394 7484 ft 103 kts 337°
2026-05-05 11:52 -26.92197 28.37130 7481 ft 102 kts 337°
2026-05-05 11:52 -26.91526 28.36866 7480 ft 102 kts 337°
2026-05-05 11:53 -26.90868 28.36608 7481 ft 101 kts 337°
2026-05-05 11:53 -26.90198 28.36345 7480 ft 102 kts 337°
2026-05-05 11:53 -26.89523 28.36081 7477 ft 102 kts 337°
2026-05-05 11:53 -26.88869 28.35824 7479 ft 100 kts 337°
2026-05-05 11:54 -26.88209 28.35565 7480 ft 100 kts 337°
2026-05-05 11:54 -26.87549 28.35306 7483 ft 101 kts 337°
2026-05-05 11:54 -26.86890 28.35048 7483 ft 101 kts 337°
2026-05-05 11:54 -26.86226 28.34788 7484 ft 101 kts 338°
2026-05-05 11:55 -26.85562 28.34528 7484 ft 100 kts 337°
2026-05-05 11:55 -26.84910 28.34273 7485 ft 100 kts 337°
2026-05-05 11:55 -26.84249 28.34013 7486 ft 100 kts 338°
2026-05-05 11:55 -26.83589 28.33755 7483 ft 99 kts 337°
2026-05-05 11:56 -26.82945 28.33503 7478 ft 99 kts 336°
2026-05-05 11:56 -26.82289 28.33245 7475 ft 100 kts 337°
2026-05-05 11:56 -26.81629 28.32987 7476 ft 100 kts 337°
2026-05-05 11:56 -26.80969 28.32729 7481 ft 100 kts 337°
2026-05-05 11:57 -26.80317 28.32473 7479 ft 100 kts 337°
2026-05-05 11:57 -26.79657 28.32215 7480 ft 100 kts 336°
2026-05-05 11:57 -26.78998 28.31958 7481 ft 100 kts 336°
2026-05-05 11:57 -26.78343 28.31701 7483 ft 101 kts 337°
2026-05-05 11:58 -26.77684 28.31444 7484 ft 99 kts 337°
2026-05-05 11:58 -26.77049 28.31196 7481 ft 95 kts 337°
2026-05-05 11:58 -26.76432 28.30953 7468 ft 93 kts 337°
2026-05-05 11:58 -26.75828 28.30718 7481 ft 92 kts 336°
2026-05-05 11:59 -26.75205 28.30472 7485 ft 97 kts 336°
2026-05-05 11:59 -26.74555 28.30218 7493 ft 102 kts 336°
2026-05-05 11:59 -26.73875 28.29953 7496 ft 104 kts 337°
2026-05-05 11:59 -26.73197 28.29689 7499 ft 102 kts 338°
2026-05-05 12:00 -26.72752 28.29515 7502 ft 102 kts 337°
2026-05-05 12:00 -26.71850 28.29163 7493 ft 103 kts 337°
2026-05-05 12:00 -26.71173 28.28898 7497 ft 103 kts 338°
2026-05-05 12:00 -26.70725 28.28724 7495 ft 102 kts 338°
2026-05-05 12:01 -26.69806 28.28549 7494 ft 102 kts 352°
2026-05-05 12:01 -26.69084 28.28684 7503 ft 109 kts
2026-05-05 12:01 -26.68617 28.28915 7496 ft 113 kts 17°
2026-05-05 12:01 -26.67931 28.29319 7500 ft 110 kts 14°
2026-05-05 12:02 -26.67248 28.29704 7501 ft 111 kts 15°
2026-05-05 12:02 -26.66555 28.30098 7497 ft 111 kts 17°
2026-05-05 12:02 -26.65862 28.30493 7506 ft 113 kts 15°
2026-05-05 12:02 -26.64942 28.31020 7496 ft 110 kts 13°
2026-05-05 12:03 -26.64480 28.31283 7497 ft 110 kts 14°
2026-05-05 12:03 -26.63811 28.31666 7492 ft 108 kts 14°
2026-05-05 12:03 -26.63138 28.32049 7493 ft 109 kts 15°
2026-05-05 12:03 -26.62467 28.32433 7497 ft 108 kts 14°
2026-05-05 12:04 -26.61797 28.32815 7496 ft 108 kts 14°
2026-05-05 12:04 -26.61117 28.33201 7503 ft 110 kts 16°
2026-05-05 12:04 -26.60426 28.33595 7508 ft 112 kts 14°
2026-05-05 12:04 -26.59732 28.33992 7506 ft 111 kts 15°
2026-05-05 12:05 -26.59057 28.34378 7503 ft 110 kts 15°
2026-05-05 12:05 -26.58377 28.34766 7499 ft 109 kts 16°
2026-05-05 12:05 -26.57694 28.35154 7499 ft 110 kts 16°
2026-05-05 12:05 -26.57029 28.35535 7563 ft 98 kts 15°
2026-05-05 12:06 -26.56406 28.35876 7247 ft 104 kts 13°
2026-05-05 12:06 -26.55746 28.36231 6814 ft 104 kts 14°
2026-05-05 12:06 -26.55120 28.36573 6522 ft 95 kts 14°
2026-05-05 12:06 -26.54493 28.36937 6142 ft 103 kts 16°
2026-05-05 12:07 -26.53851 28.37278 6054 ft 101 kts 14°
2026-05-05 12:07 -26.53193 28.37484 5880 ft 94 kts 359°
2026-05-05 12:07 -26.52588 28.37568 5608 ft 87 kts 17°
2026-05-05 12:07 -26.52077 28.37928 5425 ft 87 kts 34°
2026-05-05 12:08 -26.51658 28.38318 5321 ft 74 kts 32°
2026-05-05 12:08 -26.51244 28.38744 5166 ft 85 kts 39°
2026-05-05 12:08 -26.50847 28.39165 5084 ft 49 kts 36°
2026-05-05 12:08 -26.50788 28.39227 5083 ft 0 kts 33°
2026-05-05 12:09 -26.50786 28.39226 5083 ft 3 kts 253°
2026-05-05 12:09 -26.50824 28.39180 5084 ft 11 kts 207°
2026-05-05 12:09 -26.50874 28.39131 5084 ft 8 kts 224°
2026-05-05 12:09 -26.50893 28.39109 5084 ft 2 kts 232°
2026-05-05 12:10 -26.50961 28.39050 5084 ft 17 kts 227°
2026-05-05 12:10 -26.50950 28.38993 5083 ft 6 kts 327°
2026-05-05 12:10 -26.50889 28.38931 5083 ft 10 kts 259°
2026-05-05 12:10 -26.50881 28.38914 5083 ft 0 kts
2026-05-05 12:18 -26.50903 28.38951 5083 ft 17 kts 141°
2026-05-05 12:19 -26.50976 28.39020 5084 ft 9 kts 72°
2026-05-05 12:19 -26.50967 28.39041 5084 ft 3 kts 40°
2026-05-05 12:19 -26.50781 28.39236 5081 ft 65 kts 44°
2026-05-05 12:19 -26.50377 28.39675 5166 ft 95 kts 40°
2026-05-05 12:20 -26.49824 28.39833 5383 ft 96 kts 316°
2026-05-05 12:20 -26.49742 28.39116 5650 ft 96 kts 265°
2026-05-05 12:20 -26.50035 28.38449 6047 ft 92 kts 249°
2026-05-05 12:20 -26.50284 28.37792 6324 ft 89 kts 275°
2026-05-05 12:21 -26.50179 28.37174 6629 ft 81 kts 291°
2026-05-05 12:21 -26.50068 28.36554 6853 ft 81 kts 290°
2026-05-05 12:21 -26.49937 28.35948 7128 ft 79 kts 294°
2026-05-05 12:21 -26.49799 28.35359 7425 ft 77 kts 293°
2026-05-05 12:22 -26.49638 28.34731 7511 ft 95 kts 294°
2026-05-05 12:22 -26.49456 28.33999 7513 ft 97 kts 294°
2026-05-05 12:22 -26.49265 28.33248 7519 ft 103 kts 294°
2026-05-05 12:22 -26.49058 28.32456 7510 ft 106 kts 295°
2026-05-05 12:23 -26.48860 28.31658 7512 ft 108 kts 293°
2026-05-05 12:23 -26.48671 28.30830 7508 ft 111 kts 293°
2026-05-05 12:23 -26.48450 28.30013 7503 ft 110 kts 294°
2026-05-05 12:23 -26.48230 28.29197 7508 ft 108 kts 294°
2026-05-05 12:24 -26.48015 28.28381 7505 ft 113 kts 294°
2026-05-05 12:24 -26.47798 28.27550 7502 ft 115 kts 294°
2026-05-05 12:24 -26.47574 28.26697 7498 ft 113 kts 293°
2026-05-05 12:24 -26.47360 28.25859 7494 ft 111 kts 293°
2026-05-05 12:25 -26.47149 28.25039 7492 ft 108 kts 294°
2026-05-05 12:25 -26.46942 28.24244 7496 ft 107 kts 294°
2026-05-05 12:25 -26.46735 28.23445 7492 ft 108 kts 294°
2026-05-05 12:25 -26.46528 28.22644 7516 ft 107 kts 293°
2026-05-05 12:26 -26.46322 28.21846 7519 ft 106 kts 293°
2026-05-05 12:26 -26.46115 28.21050 7516 ft 107 kts 294°
2026-05-05 12:26 -26.45907 28.20251 7524 ft 107 kts 294°
2026-05-05 12:26 -26.45702 28.19464 7517 ft 108 kts 294°
2026-05-05 12:27 -26.45491 28.18648 7534 ft 110 kts 294°
2026-05-05 12:27 -26.45280 28.17832 7502 ft 106 kts 293°
2026-05-05 12:27 -26.45076 28.17052 7114 ft 112 kts 295°
2026-05-05 12:27 -26.44862 28.16227 7040 ft 106 kts 294°
2026-05-05 12:28 -26.44720 28.15667 7036 ft 101 kts 295°
2026-05-05 12:28 -26.44527 28.14929 7034 ft 99 kts 295°
2026-05-05 12:28 -26.44334 28.14183 7033 ft 99 kts 295°
2026-05-05 12:28 -26.44141 28.13445 7031 ft 98 kts 295°
2026-05-05 12:29 -26.43954 28.12720 7034 ft 96 kts 295°
2026-05-05 12:29 -26.43790 28.12087 7035 ft 96 kts 295°
2026-05-05 12:29 -26.43603 28.11372 7041 ft 96 kts 296°
2026-05-05 12:29 -26.43415 28.10649 7042 ft 97 kts 296°
2026-05-05 12:30 -26.43224 28.09921 7050 ft 100 kts 296°
2026-05-05 12:30 -26.43029 28.09164 7054 ft 102 kts 295°
2026-05-05 12:30 -26.42826 28.08394 7062 ft 104 kts 295°
2026-05-05 12:30 -26.42626 28.07624 7060 ft 105 kts 294°
2026-05-05 12:31 -26.42208 28.07042 7063 ft 98 kts 338°
2026-05-05 12:31 -26.41576 28.06769 7062 ft 97 kts 335°
2026-05-05 12:31 -26.40950 28.06475 7057 ft 97 kts 336°
2026-05-05 12:31 -26.40338 28.06190 7053 ft 96 kts 336°
2026-05-05 12:32 -26.39719 28.05903 7054 ft 95 kts 336°
2026-05-05 12:32 -26.39112 28.05618 7040 ft 93 kts 335°
2026-05-05 12:32 -26.38574 28.05243 7034 ft 92 kts 323°
2026-05-05 12:32 -26.38176 28.04683 7024 ft 94 kts 303°
2026-05-05 12:33 -26.37898 28.04054 7040 ft 90 kts 304°
2026-05-05 12:33 -26.37617 28.03398 7047 ft 96 kts 303°
2026-05-05 12:33 -26.37342 28.02721 7046 ft 97 kts 302°
2026-05-05 12:33 -26.37069 28.02017 7045 ft 103 kts 301°
2026-05-05 12:34 -26.36788 28.01270 7044 ft 106 kts 301°
2026-05-05 12:34 -26.36506 28.00511 7049 ft 105 kts 300°
2026-05-05 12:34 -26.36221 27.99749 7042 ft 109 kts 300°
2026-05-05 12:34 -26.35935 27.98986 7036 ft 105 kts 298°
2026-05-05 12:35 -26.35655 27.98236 7036 ft 104 kts 301°
2026-05-05 12:35 -26.35381 27.97494 7033 ft 103 kts 300°
2026-05-05 12:35 -26.34990 27.96854 7028 ft 99 kts 318°
2026-05-05 12:35 -26.34454 27.96402 7024 ft 97 kts 329°
2026-05-05 12:36 -26.33881 27.95997 7020 ft 97 kts 328°
2026-05-05 12:36 -26.33310 27.95590 7017 ft 97 kts 328°
2026-05-05 12:36 -26.32738 27.95182 7016 ft 97 kts 328°
2026-05-05 12:36 -26.32165 27.94775 7013 ft 98 kts 328°
2026-05-05 12:37 -26.31594 27.94370 7012 ft 96 kts 328°
2026-05-05 12:37 -26.31034 27.93971 7003 ft 95 kts 328°
2026-05-05 12:37 -26.30492 27.93584 7001 ft 93 kts 328°
2026-05-05 12:37 -26.29954 27.93201 7000 ft 90 kts 328°
2026-05-05 12:38 -26.29430 27.92828 6997 ft 89 kts 328°
2026-05-05 12:38 -26.28902 27.92453 7002 ft 91 kts 328°
2026-05-05 12:38 -26.28363 27.92070 7003 ft 92 kts 327°
2026-05-05 12:38 -26.27826 27.91688 7000 ft 93 kts 327°
2026-05-05 12:39 -26.27289 27.91307 6998 ft 89 kts 327°
2026-05-05 12:39 -26.26760 27.90929 6994 ft 91 kts 327°
2026-05-05 12:39 -26.26219 27.90545 6993 ft 92 kts 327°
2026-05-05 12:39 -26.25681 27.90164 6991 ft 92 kts 327°
2026-05-05 12:40 -26.25134 27.89783 6979 ft 93 kts 327°
2026-05-05 12:40 -26.24590 27.89408 6975 ft 91 kts 327°
2026-05-05 12:40 -26.24047 27.89034 6980 ft 92 kts 327°
2026-05-05 12:40 -26.23502 27.88656 6979 ft 94 kts 327°
2026-05-05 12:41 -26.22942 27.88273 6984 ft 94 kts 327°
2026-05-05 12:41 -26.22383 27.87888 6983 ft 95 kts 327°
2026-05-05 12:41 -26.21816 27.87490 6984 ft 96 kts 327°
2026-05-05 12:41 -26.21255 27.87091 6984 ft 97 kts 327°
2026-05-05 12:42 -26.20682 27.86684 6990 ft 97 kts 327°
2026-05-05 12:42 -26.20109 27.86277 6985 ft 98 kts 328°
2026-05-05 12:42 -26.19534 27.85874 6982 ft 97 kts 327°
2026-05-05 12:42 -26.18967 27.85482 6983 ft 96 kts 327°
2026-05-05 12:43 -26.18402 27.85093 6980 ft 95 kts 327°
2026-05-05 12:43 -26.17835 27.84708 6974 ft 95 kts 327°
2026-05-05 12:43 -26.17283 27.84340 6974 ft 92 kts 328°
2026-05-05 12:43 -26.16733 27.83974 6976 ft 94 kts 327°
2026-05-05 12:44 -26.16166 27.83596 6974 ft 95 kts 327°
2026-05-05 12:44 -26.15614 27.83229 6969 ft 89 kts 328°
2026-05-05 12:44 -26.15088 27.82880 6974 ft 90 kts 328°
2026-05-05 12:44 -26.14545 27.82518 6978 ft 92 kts 328°
2026-05-05 12:45 -26.13987 27.82144 6978 ft 94 kts 327°
2026-05-05 12:45 -26.13438 27.81778 6980 ft 92 kts 327°
2026-05-05 12:45 -26.12879 27.81407 6990 ft 94 kts 328°
2026-05-05 12:45 -26.12315 27.81033 6991 ft 94 kts 327°
2026-05-05 12:46 -26.11739 27.80652 6995 ft 98 kts 328°
2026-05-05 12:46 -26.11154 27.80263 6994 ft 99 kts 328°
2026-05-05 12:46 -26.10523 27.79982 6991 ft 101 kts 353°
2026-05-05 12:46 -26.09822 27.79955 6990 ft 100 kts 349°
2026-05-05 12:47 -26.09140 27.79908 6991 ft 98 kts 348°
2026-05-05 12:47 -26.08457 27.79844 6990 ft 99 kts 348°
2026-05-05 12:47 -26.07773 27.79771 6983 ft 100 kts 348°
2026-05-05 12:47 -26.07062 27.79792 6985 ft 104 kts 357°
2026-05-05 12:48 -26.06340 27.79847 6995 ft 104 kts 356°
2026-05-05 12:48 -26.05610 27.79902 7002 ft 106 kts 357°
2026-05-05 12:48 -26.04873 27.79960 7000 ft 107 kts 357°
2026-05-05 12:48 -26.04139 27.80141 6981 ft 109 kts 10°
2026-05-05 12:49 -26.03680 27.80368 6766 ft 112 kts 21°
2026-05-05 12:49 -26.02994 27.81112 6682 ft 92 kts 33°
2026-05-05 12:49 -26.02681 27.81465 6690 ft 101 kts 36°
2026-05-05 12:49 -26.02012 27.82270 6703 ft 113 kts 38°
2026-05-05 12:50 -26.01886 27.82426 6694 ft 116 kts 37°
2026-05-05 12:51 -26.01713 27.82652 6736 ft 115 kts 39°
2026-05-05 12:52 -26.01239 27.83392 6345 ft 115 kts 48°
2026-05-05 12:52 -26.00881 27.84177 6025 ft 119 kts 54°
2026-05-05 12:52 -26.00517 27.85014 5866 ft 123 kts 44°
2026-05-05 12:52 -26.00023 27.85792 5739 ft 123 kts 53°
2026-05-05 12:53 -25.99563 27.86545 5566 ft 109 kts 45°
2026-05-05 12:53 -25.99047 27.87138 5327 ft 108 kts 35°
2026-05-05 12:53 -25.98471 27.87687 5269 ft 115 kts 36°
2026-05-05 12:53 -25.97843 27.88196 5198 ft 107 kts 357°
2026-05-05 12:54 -25.96566 27.88534 4653 ft 89 kts
2026-05-05 12:54 -25.95945 27.88800 4560 ft 98 kts
2026-05-05 12:54 -25.95331 27.88712 4682 ft 86 kts 309°
2026-05-05 12:55 -25.94992 27.88161 4757 ft 82 kts 258°
2026-05-05 12:55 -25.95278 27.87615 4885 ft 96 kts 172°
2026-05-05 12:55 -25.96011 27.87682 4893 ft 110 kts 136°
2026-05-05 12:55 -25.96661 27.88131 5036 ft 106 kts 105°
2026-05-05 12:56 -25.96725 27.88845 5457 ft 84 kts 60°
2026-05-05 12:56 -25.96511 27.89354 5551 ft 75 kts
2026-05-05 12:56 -25.95950 27.89365 5473 ft 102 kts 352°
2026-05-05 12:56 -25.95486 27.89107 5724 ft 90 kts 260°
2026-05-05 12:57 -25.95687 27.88451 5683 ft 113 kts 249°
2026-05-05 12:57 -25.95815 27.88201 5629 ft 120 kts 247°
2026-05-05 12:58 -25.95886 27.88077 5702 ft 108 kts 229°
2026-05-05 12:58 -25.96147 27.87472 6000 ft 77 kts 266°
2026-05-05 12:58 -25.96181 27.87004 6234 ft 73 kts 263°
2026-05-05 13:00 -25.96486 27.86568 6481 ft 78 kts 245°
2026-05-05 13:00 -25.96780 27.86030 6718 ft 90 kts 248°
2026-05-05 13:01 -25.98127 27.83772 6718 ft 130 kts 247°
2026-05-05 13:01 -25.98618 27.82916 6716 ft 133 kts 248°
2026-05-05 13:01 -25.99127 27.82068 6707 ft 131 kts 246°
2026-05-05 13:01 -25.99632 27.81237 6706 ft 126 kts 247°
2026-05-05 13:02 -26.00127 27.80419 6702 ft 128 kts 247°
2026-05-05 13:02 -26.00614 27.79586 6702 ft 129 kts 245°
2026-05-05 13:02 -26.01086 27.78753 6686 ft 127 kts 247°
2026-05-05 13:02 -26.01543 27.77926 6691 ft 126 kts 247°
2026-05-05 13:03 -26.02016 27.77098 6699 ft 126 kts 246°
2026-05-05 13:03 -26.02478 27.76285 6690 ft 126 kts 248°
2026-05-05 13:03 -26.02969 27.75469 6692 ft 127 kts 246°
2026-05-05 13:03 -26.03431 27.74673 6911 ft 115 kts 246°
2026-05-05 13:04 -26.03868 27.73950 7136 ft 111 kts 247°
2026-05-05 13:04 -26.04298 27.73247 7320 ft 111 kts 248°
2026-05-05 13:04 -26.04753 27.72530 7473 ft 114 kts 247°
2026-05-05 13:04 -26.05224 27.71802 7572 ft 120 kts 247°
2026-05-05 13:05 -26.05716 27.71019 7583 ft 126 kts 247°
2026-05-05 13:05 -26.06226 27.70199 7579 ft 131 kts 242°
2026-05-05 13:05 -26.07063 27.69723 7561 ft 152 kts 189°
2026-05-05 13:05 -26.08028 27.70187 7559 ft 157 kts 130°
2026-05-05 13:06 -26.08362 27.71279 7559 ft 146 kts 83°
2026-05-05 13:06 -26.08426 27.72407 7572 ft 147 kts 86°
2026-05-05 13:06 -26.08391 27.73524 7579 ft 142 kts 68°
2026-05-05 13:06 -26.07998 27.74477 7581 ft 130 kts 39°
2026-05-05 13:07 -26.07427 27.75270 7555 ft 132 kts 40°
2026-05-05 13:07 -26.06892 27.76006 7140 ft 120 kts 38°
2026-05-05 13:07 -26.06347 27.76710 6678 ft 114 kts 40°
2026-05-05 13:07 -26.05911 27.77281 6650 ft 89 kts 37°
2026-05-05 13:08 -26.05512 27.77793 6672 ft 85 kts 41°
2026-05-05 13:08 -26.05119 27.78288 6679 ft 82 kts 35°
2026-05-05 13:08 -26.04746 27.78758 6683 ft 81 kts 33°
2026-05-05 13:08 -26.04360 27.79241 6690 ft 86 kts 34°
2026-05-05 13:09 -26.03949 27.79766 6699 ft 93 kts 35°
2026-05-05 13:09 -26.03536 27.80299 6698 ft 87 kts 36°
2026-05-05 13:09 -26.03157 27.80785 6691 ft 82 kts 36°
2026-05-05 13:09 -26.02785 27.81264 6689 ft 81 kts 36°
2026-05-05 13:10 -26.02407 27.81743 6701 ft 86 kts 36°
2026-05-05 13:10 -26.01996 27.82267 6711 ft 92 kts 34°
2026-05-05 13:10 -26.01558 27.82828 6656 ft 95 kts 36°
2026-05-05 13:10 -26.01147 27.83360 6596 ft 89 kts 34°
2026-05-05 13:11 -26.00738 27.83880 6524 ft 90 kts 33°
2026-05-05 13:11 -26.00323 27.84412 6467 ft 91 kts 35°
2026-05-05 13:11 -25.99910 27.84937 6353 ft 90 kts 36°
2026-05-05 13:11 -25.99494 27.85470 6257 ft 92 kts 34°
2026-05-05 13:12 -25.99073 27.86008 6155 ft 92 kts 38°
2026-05-05 13:12 -25.98646 27.86553 6055 ft 94 kts 40°
2026-05-05 13:12 -25.98208 27.87110 5988 ft 97 kts 37°
2026-05-05 13:12 -25.97779 27.87668 5904 ft 93 kts 36°
2026-05-05 13:13 -25.97371 27.88187 5832 ft 87 kts 43°
2026-05-05 13:13 -25.96971 27.88697 5755 ft 87 kts 36°
2026-05-05 13:13 -25.96575 27.89200 5669 ft 85 kts 42°
2026-05-05 13:13 -25.96177 27.89705 5598 ft 88 kts 45°
2026-05-05 13:14 -25.95753 27.90236 5468 ft 99 kts 40°
2026-05-05 13:14 -25.95271 27.90843 5132 ft 108 kts 44°
2026-05-05 13:14 -25.94812 27.91524 4633 ft 110 kts 59°
2026-05-05 13:14 -25.94405 27.92055 4494 ft 77 kts 38°
2026-05-05 13:15 -25.94221 27.92077 4487 ft 3 kts 353°
2026-05-05 13:15 -25.94220 27.92078 4487 ft 0 kts 81°